User: anonymous   Login
Location: Edinburgh
(55.9500°N, 3.1600°W)
Time: 06:48:47
(UTC+01:00)
Language:

M-CUBED/EXP-1 PRIME - Orbit

View from above orbital plane
View from above orbital plane
View from above satellite
View from above satellite

Ground track
Ground track

The orbit data is extracted from the following two-line orbital elements,

1 37855U 11061F   19286.83236477  .00001450  00000-0  79681-4 0  9998
2 37855 101.7161 242.5694 0173000  89.4548 272.6483 15.05638110434405
Epoch (UTC): 13 October 2019 19:58:36
Eccentricity: 0.0173000
inclination: 101.7161°
perigee height: 430 km
apogee height: 669 km
right ascension of ascending node: 242.5694°
argument of perigee: 89.4548°
revolutions per day: 15.05638110
mean anomaly at epoch: 272.6483°
orbit number at epoch: 43440

The dashed part of the orbit path shows where the satellite is in the earth's shadow,  

DLR